JY1SAT (JO-97)

Last updated on Sun Apr 12 2026 00:03:15 GMT+0000 (Coordinated Universal Time)

1 43803U 18099AX 26101.43249685 .00013009 00000+0 42826-3 0 9993 2 43803 97.4190 164.1254 0007148 140.5208 219.6556 15.31603261403406
UTC large
Height (km)
Speed (km/s)
/
Latitude / Longitude
Inclination (degrees)
Orbital Period (minutes)
Azimuth
Elevation
Range (km)
Doppler Factor

Next 0 passes for location: London (51.5072 / 0.1276)

Sorry there are no passes over London.